Terug naar catalogus

NIMBUS 2 DEB

ActiefLEO
NORAD 25612·DEBRIS·🇺🇸 United States

Gelanceerd May 15, 1966 vanaf Vandenberg Space Force Base

Loading…

Volgende Passages (komende 24 uur)

TLE

VersSource: Space-Track

Epoch: Sep 13, 2026, 06:07 UTC

1 25612U 66040E   26256.25506961  .00002709  00000-0  26773-2 0  9992
2 25612 100.4893 175.9070 0034176 294.0835 219.5400 13.79352253447718

Volg NIMBUS 2 DEB in realtime met AllMySat

Download on the App Store